CAPE
0 0 0 0 0 0 0 0 0 408 990 1484 1281 721 411 363 449 513 578 327 192 214 110 30 23 13 1 0 25 69 111 118
0 0 0 0 0 0 0 0 44 516 913 1182 773 420 184 110 104 99 36 155 141 98 71 30 2 2 1 0 4 58 64 53
0 0 0 0 1 5 35 168 351 562 717 696 580 433 341 129 14 16 3 34 73 46 68 47 2 2 2 0 15 42 40 49
0 0 0 0 0 74 100 203 462 439 590 519 730 490 315 34 16 3 2 82 142 92 48 41 2 2 2 0 2 13 26 23
0 0 0 0 8 166 170 326 400 259 571 509 821 612 624 296 119 88 97 145 43 5 2 10 4 2 1 0 0 1 22 10
0 0 0 0 0 134 280 362 217 193 442 857 922 885 583 317 107 140 133 9 1 6 5 1 2 1 1 0 3 30 18 0
0 0 0 0 0 2 34 152 148 167 369 796 902 871 470 319 296 204 79 2 2 2 1 2 1 2 2 1 0 1 5 13
0 0 0 0 0 0 0 1 20 3 75 521 652 570 359 199 362 175 68 4 2 1 2 2 2 2 1 1 0 14 6 26
0 0 0 0 0 20 0 1 2 4 8 146 344 305 157 142 232 213 47 20 2 3 3 2 2 2 1 0 0 13 22 35
0 0 0 0 0 0 58 1 30 5 2 45 111 126 316 250 291 237 220 26 1 5 3 3 3 2 0 0 0 3 3 19
0 0 0 0 0 0 0 122 6 5 2 16 204 208 246 180 164 225 149 50 29 13 2 3 3 3 2 0 0 0 0 0
0 0 0 0 0 0 0 0 4 4 4 3 150 103 72 78 10 19 21 6 1 13 5 3 2 2 2 2 2 0 0 0
0 0 0 0 0 0 0 0 4 3 1 2 125 81 61 56 19 8 4 1 15 14 2 1 2 0 1 1 1 1 0 1
0 0 0 0 0 0 0 0 0 6 6 9 35 57 19 23 9 11 1 0 2 1 4 7 12 10 1 5 1 0 0 0
0 0 16 1 0 0 0 0 0 2 5 9 20 13 2 3 18 2 0 0 1 1 2 1 1 1 5 2 2 1 1 0
0 1 27 3 0 0 0 0 0 2 2 6 8 1 10 16 19 0 1 3 2 2 2 1 0 0 0 1 1 1 1 0
43 0 0 0 0 0 0 0 0 1 4 4 5 10 23 22 14 1 1 1 1 1 1 0 0 0 0 0 0 0 1 3
1 0 0 0 0 0 1 0 1 2 3 5 6 20 17 24 9 2 1 0 0 0 0 0 0 3 1 3 5 9 8 9
0 0 0 0 0 0 2 1 2 3 3 6 6 14 10 28 6 2 0 0 0 0 1 4 4 10 3 10 8 9 7 5
CIN
-0 -0 -0 -0 -0 -0 -0 -0 -0 -303 -186 -123 -154 -258 -343 -281 -207 -138 -71 -71 -58 -16 -15 -19 -22 -2 -1 -0 -11 -1 -1 -2
-0 -0 -0 -0 -0 -0 -0 -0 -458 -300 -235 -206 -286 -387 -442 -376 -325 -261 -266 -116 -93 -65 -31 -15 -0 -0 -0 -0 -9 -2 -1 -2
-0 -0 -0 -0 -216 -458 -451 -417 -327 -288 -311 -316 -317 -337 -338 -371 -420 -343 -15 -217 -116 -72 -25 -3 -0 -0 -0 -1 -5 -1 -2 -1
-0 -0 -0 -0 -0 -366 -367 -337 -289 -324 -296 -347 -272 -314 -327 -418 -430 -12 -0 -149 -56 -30 -11 -3 -0 -0 -0 -0 -11 -16 -2 -2
-0 -0 -0 -0 -183 -314 -344 -282 -296 -382 -295 -339 -261 -313 -274 -311 -328 -259 -155 -87 -81 -114 -0 -1 -0 -0 -0 -0 -0 -1 -1 -0
-0 -0 -0 -0 -0 -340 -276 -253 -357 -378 -317 -212 -198 -172 -180 -234 -316 -223 -148 -122 -0 -1 -0 -0 -0 -0 -0 -0 -1 -0 -2 -0
-0 -0 -0 -0 -0 -231 -281 -346 -337 -346 -291 -181 -157 -124 -179 -192 -169 -158 -190 -0 -0 -0 -0 -0 -0 -0 -0 -0 -0 -0 -0 -0
-0 -0 -0 -0 -0 -0 -0 -0 -398 -34 -360 -208 -167 -190 -206 -203 -120 -126 -170 -86 -0 -0 -0 -0 -0 -0 -0 -0 -0 -11 -25 -7
-0 -0 -0 -0 -0 -278 -0 -80 -0 -0 -415 -350 -242 -232 -262 -215 -143 -92 -177 -174 -0 -0 -0 -0 -0 -0 -0 -0 -0 -25 -27 -11
-0 -0 -0 -0 -0 -0 -212 -78 -307 -0 -23 -374 -316 -254 -154 -156 -115 -78 -72 -145 -1 -1 -0 -0 -0 -0 -0 -0 -0 -42 -61 -29
-0 -0 -0 -0 -0 -0 -0 -137 -75 -0 -0 -360 -228 -194 -163 -179 -151 -91 -84 -105 -70 -7 -0 -0 -0 -0 -0 -0 -0 -0 -0 -0
-0 -0 -0 -0 -0 -0 -0 -0 -0 -0 -133 -36 -194 -178 -192 -213 -308 -283 -216 -142 -5 -8 -6 -0 -0 -0 -0 -0 -0 -0 -0 -0
-0 -0 -0 -0 -0 -0 -0 -0 -0 -0 -0 -0 -163 -153 -169 -218 -290 -23 -1 -3 -35 -0 -12 -8 -0 -0 -0 -0 -0 -0 -0 -0
-0 -0 -0 -0 -0 -0 -0 -0 -0 -0 -0 -62 -158 -138 -215 -248 -1 -0 -3 -0 -4 -0 -5 -2 -0 -0 -0 -54 -0 -0 -0 -0
-0 -0 -1 -0 -0 -0 -0 -0 -0 -0 -0 -33 -161 -192 -1 -4 -0 -0 -0 -0 -0 -5 -1 -0 -0 -0 -0 -0 -0 -0 -0 -0
-0 -1 -2 -0 -0 -0 -0 -0 -0 -0 -0 -0 -17 -1 -24 -1 -0 -0 -0 -2 -2 -0 -0 -0 -0 -0 -0 -0 -0 -0 -0 -0
-10 -0 -0 -0 -0 -0 -0 -0 -0 -0 -0 -0 -0 -1 -1 -0 -0 -0 -0 -0 -0 -0 -0 -0 -0 -0 -0 -0 -0 -0 -0 -0
-1 -0 -0 -0 -0 -0 -0 -0 -0 -0 -0 -0 -0 -0 -0 -0 -2 -0 -0 -0 -0 -0 -0 -0 -0 -0 -0 -0 -0 -0 -0 -0
-0 -0 -0 -0 -0 -0 -0 -0 -0 -0 -0 -0 -0 -0 -0 -0 -1 -0 -0 -0 -0 -0 -0 -0 -0 -0 -0 -0 -0 -0 -0 -0
Wind_Speed
26 28 30 31 32 30 25 21 16 12 11 12 12 11 9 8 9 9 6 6 10 12 12 13 14 19 22 20 19 17 15 14
28 28 30 32 33 32 28 20 13 10 11 12 13 12 9 8 10 8 7 6 8 12 13 13 16 27 24 23 21 21 18 16
28 30 32 32 34 32 27 17 9 9 10 13 12 11 8 8 10 9 7 6 8 11 13 14 22 28 27 28 23 23 23 21
28 30 30 32 33 32 26 17 8 7 9 12 10 9 9 9 11 9 7 7 9 10 12 20 29 26 27 30 27 26 25 24
26 29 30 31 32 30 24 18 9 6 11 12 11 10 10 9 9 8 7 6 7 9 12 24 29 28 28 34 31 29 26 24
27 29 30 30 31 30 27 21 10 7 15 12 12 11 12 11 12 8 6 7 5 5 6 21 34 34 30 32 32 30 29 27
27 29 30 31 31 29 27 22 13 7 18 14 13 14 14 12 11 9 8 7 6 2 1 7 19 29 24 30 32 34 28 29
28 30 31 32 32 31 27 23 15 9 21 16 15 15 13 12 12 10 7 7 4 2 1 2 16 25 28 30 32 31 31 28
29 31 32 33 33 33 31 24 15 15 23 17 17 15 13 12 12 11 7 8 4 3 3 5 11 21 27 29 28 32 32 31
30 31 31 32 33 33 32 25 19 20 22 20 19 17 13 12 11 9 7 4 3 3 6 5 12 16 23 28 31 33 31 28
32 31 32 33 34 32 32 28 25 22 24 21 21 18 14 12 12 10 8 7 3 4 8 8 10 13 14 28 29 29 27 24
32 32 33 35 35 34 32 32 27 21 27 24 25 21 17 13 12 10 8 9 6 5 5 7 10 13 16 18 27 25 25 25
32 32 33 35 36 34 33 33 30 23 29 27 26 22 18 15 12 9 9 10 10 7 7 12 13 11 17 20 23 24 27 25
34 34 34 34 35 35 34 33 34 24 28 28 25 22 19 16 13 10 9 9 13 15 13 13 11 23 28 20 26 27 26 28
34 34 34 34 35 34 35 33 33 28 28 27 24 23 22 17 12 9 8 7 9 11 12 11 10 24 31 27 24 31 28 31
33 32 33 35 35 34 33 31 31 32 28 27 25 24 22 17 12 9 8 8 10 8 10 12 11 18 24 19 22 25 28 25
32 32 34 34 36 35 34 31 32 33 31 27 26 23 22 17 12 9 8 7 7 7 8 10 10 10 11 5 6 13 17 17
32 33 33 34 36 34 33 32 33 33 32 27 26 23 21 17 13 10 7 5 4 5 6 8 8 8 10 2 1 3 8 9
30 31 32 33 35 33 34 32 33 32 34 29 26 23 22 17 14 11 8 5 3 3 5 6 6 7 9 10 9 6 4 3
Wind_Direction
293 297 300 299 299 300 298 294 284 248 238 249 249 246 242 246 263 274 257 246 218 220 239 221 224 242 228 222 215 219 201 204
296 302 304 303 301 303 303 299 282 238 231 236 249 244 242 249 270 277 283 232 215 216 241 233 227 241 225 211 215 217 210 202
297 301 302 304 303 304 306 305 281 232 239 248 258 254 256 261 283 290 286 230 217 220 237 242 241 239 229 213 206 215 218 211
301 304 307 306 307 307 306 310 289 236 239 248 248 252 280 278 284 292 273 229 214 222 240 269 239 231 222 212 208 210 215 215
305 306 307 311 314 312 307 310 301 240 247 242 231 244 259 276 288 297 287 249 234 235 246 267 238 219 222 216 216 215 214 210
306 308 308 313 317 314 308 308 307 263 256 242 243 257 280 295 300 302 294 297 275 225 244 268 238 229 221 219 211 217 219 218
308 312 314 310 314 313 310 307 307 272 260 250 252 267 280 292 297 305 308 315 323 330 11 265 229 226 213 217 215 218 220 223
312 314 311 309 308 308 309 309 306 281 262 255 256 268 275 286 294 300 307 308 313 305 146 209 246 226 224 220 215 219 221 224
310 313 311 311 309 307 303 304 308 283 263 257 257 260 274 283 290 299 299 304 298 180 191 158 253 236 227 222 217 222 225 227
308 312 312 312 312 308 305 300 303 280 268 258 255 260 267 278 289 293 308 298 283 187 180 200 152 239 228 223 223 224 228 229
306 309 310 311 310 310 306 299 297 282 267 261 256 255 261 273 282 291 302 303 298 188 181 184 173 163 220 226 226 230 229 229
304 306 309 309 309 309 305 298 295 284 265 260 257 256 260 266 274 284 295 300 290 275 228 225 209 190 181 218 230 229 228 230
304 306 307 310 312 307 305 302 290 284 263 258 257 254 258 265 268 278 290 296 293 280 261 272 260 219 227 218 221 229 222 227
300 301 305 312 314 308 305 303 292 281 260 254 253 249 255 260 265 275 288 301 296 290 285 278 275 271 259 234 231 228 225 232
300 299 299 309 313 312 309 303 294 276 257 250 248 246 252 256 259 267 284 304 312 301 288 293 301 282 267 253 229 231 230 240
300 301 301 304 309 312 314 307 302 272 253 249 243 245 248 252 251 260 277 300 313 316 298 300 324 302 274 253 242 234 242 242
299 299 301 303 306 309 312 309 298 266 249 245 240 241 243 246 243 251 268 293 315 323 335 317 327 8 297 256 232 234 234 239
299 301 301 302 305 309 305 302 286 264 253 242 237 238 240 241 237 242 256 279 319 342 346 347 342 4 47 13 191 255 225 231
300 303 303 304 305 302 298 294 283 266 252 241 234 236 239 238 233 235 240 255 293 353 9 10 23 17 66 73 78 104 125 162